Вернуться в каталог

FENGYUN 1C DEB

АктивенPO
NORAD 36162·DEBRIS·🇨🇳 China

Запущен May 10, 1999 с Taiyuan Satellite Launch Center

Loading…

Ближайшие Пролёты (ближайшие 24 часа)

TLE

УстаревающийSource: Space-Track

Эпоха: Sep 7, 2026, 02:38 UTC

1 36162U 99025DSK 26250.11015094  .00002350  00000-0  11146-2 0  9994
2 36162  97.6216  10.9096 0246267  66.5184 296.1663 14.05562156742880

Отслеживайте FENGYUN 1C DEB в реальном времени с AllMySat

Download on the App Store